Regional Weather Roundup
Issued by NWS

Home | Current Version | Previous Version | Graphics & Text | Print | Product List | Glossary On
Versions: 1 2 3 4 5 6 7 8 9 10 11 12 13 14 15 16 17 18 19 20 21 22 23 24 25 26 27 28 29 30 31 32 33 34 35 36 37 38 39 40 41 42 43 44 45 46 47 48 49 50
542
ASUS43 KDMX 220706
RWRIA

WEATHER ROUNDUP FOR IOWA
NATIONAL WEATHER SERVICE DES MOINES IA
200 AM CDT SAT JUL 22 2017

NOTE: "FAIR" INDICATES FEW OR NO CLOUDS BELOW 12,000 FEET WITH NO
SIGNIFICANT WEATHER AND/OR OBSTRUCTIONS TO VISIBILITY.

* - THESE STATIONS ARE NOT NWS STATIONS...THUS NOT UNDER NWS
QUALITY CONTROL.  THEY ALSO DO NOT REPORT WEATHER SUCH
AS PRECIPITATION OR FOG.

IAZ001>003-012>014-020>022-031>034-043>046-220800-
   NORTHWEST IOWA

CITY           SKY/WX    TMP DP  RH WIND       PRES   REMARKS
CARROLL *      FOG       75  75 100 N12       29.76R VSB 1/4
CHEROKEE *     MOCLDY    74  74 100 NE9       29.79R FOG
DENISON *      CLOUDY    77  77 100 NE10      29.76R FOG
ORANGE CITY *  CLOUDY    75  73  94 E7        29.80F FOG
SHELDON *      CLOUDY    73  72  94 E8        29.80F
SIOUX CITY     CLOUDY    78  77  96 NE8       29.76R HX  81
SPENCER        CLOUDY    74  72  93 NE8       29.83R
STORM LAKE *   FOG       73  72  94 NE12      29.80R VSB 1
$$

IAZ055>058-069>071-079>083-090>094-220800-
   SOUTHWEST IOWA

CITY           SKY/WX    TMP DP  RH WIND       PRES   REMARKS
ATLANTIC *     CLOUDY    77  73  88 W5        29.74R
AUDUBON *      PTCLDY    81  73  78 S7        29.75R HX  85
CLARINDA *       N/A     82  73  74 SW13G21   29.75S HX  88
COUNCIL BLFS * CLOUDY    82  72  69 SW9       29.73S HX  87
CRESTON *      CLEAR     82  72  69 SW17G23   29.75F HX  87
HARLAN  *      PTCLDY    79  75  89 S8        29.76S HX  82
LAMONI         CLEAR     83  73  72 SW16G28   29.76S HX  89
RED OAK *      CLEAR     82  72  69 SW10G16   29.72S HX  87
SHENANDOAH *   CLEAR     84  72  65 SW10      29.73S HX  89
$$

IAZ047>049-059>061-072>074-084-220800-
   CENTRAL IOWA

CITY           SKY/WX    TMP DP  RH WIND       PRES   REMARKS
AMES           CLOUDY    74  74 100 VRB3      29.75R
ANKENY *       CLOUDY    86  73  66 SW6G13    29.73R HX  93
BOONE *        CLOUDY    73  73 100 N12       29.76R FOG
CHARITON *     CLEAR     84  72  65 SW17G29   29.75R HX  89
DES MOINES     CLOUDY    86  73  65 SW10      29.72R HX  93
GRINNELL*      CLOUDY    82  73  74 S3        29.77R HX  87
KNOXVILLE *    CLEAR     86  72  62 SW14G20   29.73R HX  92
MARSHALLTOWN   CLOUDY    75  74  96 E13       29.77R
NEWTON *       CLOUDY    82  73  74 SW8       29.74R HX  88
PELLA *        CLEAR     84  71  64 S8        29.75R HX  89
$$

IAZ004>006-015-016-023>025-035-036-220800-
   NORTH CENTRAL IOWA

CITY           SKY/WX    TMP DP  RH WIND       PRES   REMARKS
ALGONA *       CLOUDY    72  72 100 NE10G17   29.83R
CLARION *      CLOUDY    72  72 100 NE13      29.80R
ESTHERVILLE    CLOUDY    71  71 100 NE10      29.83R
FORT DODGE *   CLOUDY    72  70  94 E8        29.79S
MASON CITY     CLOUDY    71  69  93 NE9       29.82S
FOREST CITY *  CLOUDY    72  70  94 NE6       29.82R
WEBSTER CITY * CLOUDY    72  70  94 NE9       29.76R
IOWA FALLS *   CLOUDY    73  71  95 E10       29.78F
$$

IAZ007>011-017>019-026>030-037>042-050>054-066-220800-
   NORTHEAST IOWA

CITY           SKY/WX    TMP DP  RH WIND       PRES   REMARKS
CEDAR RAPIDS   CLOUDY    75  74  96 NE18G24   29.80R
CHARLES CITY * CLOUDY    72  72 100 E9        29.82F
CLINTON *      TSTM      69  68  96 NE10      29.86F FOG
DECORAH *      CLOUDY    72  70  94 E6        29.82S
DUBUQUE        TSTM      69  69 100 W12       29.82F FOG
MONTICELLO *   RAIN      70  70 100 N8        29.86R
OELWEIN *      HVY RAIN  70  70 100 S12       29.84F VSB 3/4
WATERLOO       CLOUDY    73  70  90 NE12      29.80R
$$

IAZ064-065-067-068-078-220800-
   EAST CENTRAL IOWA

CITY           SKY/WX    TMP DP  RH WIND       PRES   REMARKS
DAVENPORT      TSTM      69  68  96 NE16      29.86R FOG
IOWA CITY      CLOUDY    79  74  84 N17       29.80R HX  82
MT. PLEASANT * PTCLDY    82  70  65 SW12      29.77S HX  86
MUSCATINE *    MOCLDY   N/A N/A N/A MISG        N/A
QUAD CITIES    CLOUDY    74  67  78 NE18      29.83R THUNDER
$$

IAZ062-063-075>077-085>089-095>099-220800-
   SOUTHEAST IOWA

CITY           SKY/WX    TMP DP  RH WIND       PRES   REMARKS
BURLINGTON     PTCLDY    82  72  71 SW12      29.77F HX  87
FAIRFIELD *    CLOUDY    86  70  58 SW13G20   29.76S HX  90
FORT MADISON * CLEAR     82  72  69 S9        29.79S HX  87
KEOKUK *       CLEAR     82  72  69 SW9       29.78S HX  87
OSKALOOSA *      N/A     84  71  64 SW13G20   29.76R HX  89
CENTERVILLE *    N/A     82  72  69 S13G21    29.79S HX  87
OTTUMWA        CLEAR     87  71  58 SW12G21   29.76R HX  93
WASHINGTON *   CLOUDY    84  73  70 SW12      29.76S HX  91
$$

ABBREVIATIONS USED IN REMARKS
   TC - TEMPERATURES IN CELSIUS
  WCI - WIND CHILL INDEX
   HX - HEAT INDEX
  VSB - VISIBILITY
$$





USA.gov is the U.S. government's official web portal to all federal, state and local government web resources and services.